| time (UTC) | temp C | wind direction | speed KPH | gust KPH | rain 1hr cm | rain 24hr cm | rain mn cm | humidity % | barometer mb |
| 20260505194247 | 2 | 139 | 8.0 | 17.7 | 0.05 | 0.33 | 0.28 | 95 | 1014.6 |
| 20260505192748 | 2 | 146 | 8.0 | 16.1 | 0.03 | 0.30 | 0.25 | 95 | 1014.7 |
| 20260505191939 | 3 | 134 | 9.7 | 20.9 | 0.08 | 0.30 | 0.25 | 95 | 1014.5 |
| 20260505185747 | 3 | 136 | 6.4 | 14.5 | 0.18 | 0.28 | 0.23 | 95 | 1014.7 |
| 20260505185636 | 3 | 166 | 6.4 | 17.7 | 0.20 | 0.28 | 0.23 | 95 | 1014.9 |
| 20260505182746 | 2 | 143 | 4.8 | 12.9 | 0.20 | 0.28 | 0.23 | 95 | 1014.9 |
| 20260505181241 | 2 | 267 | 1.6 | 9.7 | 0.15 | 0.23 | 0.18 | 94 | 1015.4 |
| 20260505175741 | 2 | 272 | 0.0 | 4.8 | 0.05 | 0.10 | 0.05 | 93 | 1015.6 |
| 20260505174241 | 2 | 338 | 1.6 | 9.7 | 0.03 | 0.08 | 0.03 | 92 | 1015.3 |
| 20260505173437 | 2 | 340 | 1.6 | 8.0 | 0.03 | 0.08 | 0.03 | 92 | 1015.7 |
| 20260505171243 | 2 | 345 | 4.8 | 9.7 | 0.03 | 0.08 | 0.03 | 92 | 1015.7 |
| 20260505165743 | 2 | 326 | 1.6 | 8.0 | 0.00 | 0.05 | 0.00 | 92 | 1015.6 |
| 20260505165635 | 2 | 2 | 4.8 | 11.3 | 0.00 | 0.05 | 0.00 | 92 | 1015.6 |
| 20260505162734 | 2 | 331 | 3.2 | 9.7 | 0.00 | 0.05 | 0.00 | 92 | 1015.4 |
| 20260505161235 | 2 | 358 | 4.8 | 12.9 | 0.00 | 0.05 | 0.00 | 92 | 1015.6 |
| 20260505152734 | 2 | 349 | 1.6 | 8.0 | 0.00 | 0.05 | 0.00 | 91 | 1015.7 |
| 20260505151229 | 3 | 321 | 3.2 | 8.0 | 0.00 | 0.05 | 0.00 | 90 | 1015.7 |
| 20260505124222 | 5 | 122 | 4.8 | 14.5 | 0.00 | 0.05 | 0.00 | 84 | 1014.7 |
| 20260505122725 | 5 | 127 | 6.4 | 11.3 | 0.00 | 0.05 | 0.00 | 83 | 1014.5 |
| 20260505121223 | 6 | 134 | 4.8 | 9.7 | 0.00 | 0.05 | 0.00 | 81 | 1014.2 |
| 20260505115723 | 6 | 134 | 3.2 | 9.7 | 0.00 | 0.05 | 0.00 | 80 | 1014.2 |
| 20260505114916 | 6 | 134 | 3.2 | 9.7 | 0.00 | 0.05 | 0.00 | 81 | 1014.2 |
| 20260505112721 | 6 | 134 | 3.2 | 8.0 | 0.00 | 0.05 | 0.00 | 82 | 1014.0 |
| 20260505111219 | 6 | 134 | 1.6 | 8.0 | 0.00 | 0.05 | 0.00 | 83 | 1013.7 |
| 20260505095715 | 6 | 133 | 1.6 | 6.4 | 0.00 | 0.05 | 0.00 | 90 | 1013.7 |
| 20260505094215 | 6 | 133 | 0.0 | 3.2 | 0.00 | 0.05 | 0.00 | 89 | 1013.7 |
| 20260505092715 | 6 | 133 | 0.0 | 1.6 | 0.00 | 0.05 | 0.00 | 88 | 1013.5 |
| 20260505091215 | 6 | 133 | 0.0 | 4.8 | 0.00 | 0.05 | 0.00 | 88 | 1013.8 |
| 20260505090403 | 7 | 113 | 0.0 | 1.6 | 0.00 | 0.05 | 0.00 | 89 | 1013.7 |
| 20260505084909 | 7 | 330 | 0.0 | 1.6 | 0.00 | 0.05 | 0.00 | 89 | 1014.3 |
| 20260505082713 | 7 | 42 | 0.0 | 0.0 | 0.00 | 0.05 | 0.00 | 88 | 1014.3 |
| 20260505081211 | 7 | 46 | 0.0 | 8.0 | 0.00 | 0.05 | 0.00 | 88 | 1014.5 |
| 20260505075710 | 7 | 324 | 1.6 | 6.4 | 0.00 | 0.05 | 0.00 | 88 | 1014.6 |
| 20260505074210 | 7 | 338 | 1.6 | 4.8 | 0.00 | 0.05 | 0.00 | 88 | 1014.6 |
| 20260505072711 | 7 | 343 | 3.2 | 9.7 | 0.00 | 0.05 | 0.00 | 88 | 1014.7 |
| 20260505071208 | 7 | 354 | 3.2 | 9.7 | 0.00 | 0.05 | 0.00 | 87 | 1014.7 |
| 20260505065709 | 7 | 22 | 1.6 | 8.0 | 0.00 | 0.05 | 0.00 | 87 | 1014.8 |
| 20260505064209 | 7 | 357 | 3.2 | 8.0 | 0.03 | 0.05 | 0.00 | 87 | 1014.8 |
| 20260505062709 | 7 | 2 | 0.0 | 6.4 | 0.03 | 0.05 | 0.00 | 88 | 1015.1 |
| 20260505061907 | 7 | 25 | 3.2 | 8.0 | 0.03 | 0.05 | 0.00 | 85 | 1014.8 |
| 20260505055708 | 7 | 28 | 1.6 | 8.0 | 0.03 | 0.05 | 0.05 | 85 | 1015.2 |
| 20260505054208 | 8 | 10 | 1.6 | 9.7 | 0.00 | 0.03 | 0.03 | 82 | 1015.2 |
| 20260505052707 | 8 | 300 | 4.8 | 12.9 | 0.00 | 0.03 | 0.03 | 79 | 1015.3 |
| 20260505051207 | 8 | 321 | 6.4 | 14.5 | 0.00 | 0.03 | 0.03 | 78 | 1015.3 |
| 20260505041208 | 8 | 347 | 9.7 | 25.7 | 0.00 | 0.03 | 0.03 | 78 | 1014.2 |
| 20260505035707 | 8 | 348 | 6.4 | 19.3 | 0.00 | 0.03 | 0.03 | 76 | 1014.3 |
| 20260505034206 | 8 | 350 | 8.0 | 19.3 | 0.00 | 0.03 | 0.03 | 75 | 1014.2 |
| 20260505032706 | 9 | 328 | 8.0 | 19.3 | 0.00 | 0.03 | 0.03 | 74 | 1014.2 |
| 20260505031203 | 9 | 352 | 8.0 | 20.9 | 0.00 | 0.03 | 0.03 | 73 | 1014.2 |
| 20260505030356 | 9 | 331 | 3.2 | 11.3 | 0.00 | 0.03 | 0.03 | 74 | 1014.0 |
| 20260505024859 | 9 | 328 | 3.2 | 11.3 | 0.03 | 0.03 | 0.03 | 72 | 1014.1 |
| 20260505022657 | 9 | 336 | 3.2 | 11.3 | 0.03 | 0.03 | 0.03 | 68 | 1014.0 |
| 20260505021159 | 9 | 30 | 8.0 | 19.3 | 0.03 | 0.03 | 0.03 | 67 | 1014.1 |
| 20260505015657 | 10 | 21 | 12.9 | 24.1 | 0.03 | 0.03 | 0.03 | 67 | 1014.3 |
| 20260505014153 | 11 | 345 | 1.6 | 19.3 | 0.00 | 0.00 | 0.00 | 59 | 1013.8 |
| 20260505012653 | 11 | 356 | 9.7 | 24.1 | 0.00 | 0.00 | 0.00 | 58 | 1013.7 |
| 20260505011153 | 12 | 358 | 11.3 | 30.6 | 0.00 | 0.00 | 0.00 | 50 | 1013.6 |
| 20260505005655 | 13 | 300 | 12.9 | 25.7 | 0.00 | 0.00 | 0.00 | 44 | 1013.0 |
| 20260505004842 | 13 | 23 | 12.9 | 25.7 | 0.00 | 0.00 | 0.00 | 38 | 1012.5 |
| 20260505002653 | 14 | 13 | 12.9 | 27.4 | 0.00 | 0.00 | 0.00 | 36 | 1011.9 |
| 20260505001154 | 15 | 34 | 9.7 | 24.1 | 0.00 | 0.00 | 0.00 | 34 | 1011.5 |
| 20260504235653 | 16 | 10 | 12.9 | 30.6 | 0.00 | 0.00 | 0.00 | 32 | 1011.3 |
| 20260504234745 | 16 | 354 | 9.7 | 22.5 | 0.00 | 0.00 | 0.00 | 30 | 1011.3 |
| 20260504234207 | 16 | 19 | 14.5 | 24.1 | 0.00 | 0.00 | 0.00 | 32 | 1011.0 |
| 20260504231149 | 16 | 136 | 3.2 | 12.9 | 0.00 | 0.00 | 0.00 | 31 | 1011.4 |
| 20260504225649 | 16 | 58 | 6.4 | 16.1 | 0.00 | 0.00 | 0.00 | 34 | 1011.3 |
| 20260504224147 | 16 | 158 | 11.3 | 22.5 | 0.00 | 0.00 | 0.00 | 34 | 1011.2 |
| 20260504222645 | 16 | 165 | 6.4 | 24.1 | 0.00 | 0.00 | 0.00 | 34 | 1011.5 |
| 20260504221143 | 16 | 148 | 12.9 | 32.2 | 0.00 | 0.00 | 0.00 | 33 | 1011.3 |
| 20260504215637 | 16 | 214 | 17.7 | 40.2 | 0.00 | 0.00 | 0.00 | 30 | 1011.2 |
| 20260504214139 | 17 | 255 | 8.0 | 24.1 | 0.00 | 0.00 | 0.00 | 26 | 1011.2 |
| 20260504212639 | 18 | 354 | 11.3 | 20.9 | 0.00 | 0.00 | 0.00 | 22 | 1010.9 |
| 20260504211135 | 18 | 328 | 14.5 | 29.0 | 0.00 | 0.00 | 0.00 | 22 | 1010.7 |
| 20260504210330 | 19 | 340 | 8.0 | 20.9 | 0.00 | 0.00 | 0.00 | 20 | 1010.3 |
| 20260504204133 | 19 | 262 | 6.4 | 19.3 | 0.00 | 0.00 | 0.00 | 20 | 1010.7 |
| 20260504202625 | 19 | 266 | 9.7 | 20.9 | 0.00 | 0.00 | 0.00 | 20 | 1011.2 |
| 20260504201837 | 18 | 293 | 12.9 | 27.4 | 0.00 | 0.00 | 0.00 | 22 | 1011.3 |
| 20260504195625 | 18 | 342 | 14.5 | 30.6 | 0.00 | 0.00 | 0.00 | 19 | 1011.5 |